Date String (YYYY-MM-DD hh:mm:ss) UTC,Instrument flags,absolute air pressure of the measurement (hPa),sample flow rate (lpm),inlet stack bypass flow (lpm),air temperature of the measurement (°C),ambient temperature measured by the external sensor (°C),aerosol sample conditioner tube jacket temperature (°C),OPC LED temperature (°C),internal box temperature (°C),relative humidity of the measurement (%),span deviation,mass concentration of particles derived from Lorenz-Mie calculation of OPC scattering (μg/m³),mass concentration of particles derived from Lorenz-Mie calculation of OPC scattering (μg/m³),mass concentration of particles derived from Lorenz-Mie calculation of OPC scattering (μg/m³)
DateTimeUTC,F1_M11,P_M11,Q1_M11,Q2_M11,T1_M11,T2_M11,T3_M11,T4_M11,T5_M11,U1_M11,ZSPAN_M11,X0_M11,X2_M11,X1_M11
2023-08-02 05:00:00,SystemResetWarning,0835.1,4.99,000.00,031.8,028.6,000.0,039.4,032.0,34.3,0000.0,0007.05,0003.72,0003.13
2023-08-02 05:01:00,SystemResetWarning,0835.1,4.99,000.00,031.9,028.0,000.0,039.4,032.0,34.1,0000.0,0007.02,0003.72,0003.11
2023-08-02 05:02:00,SystemResetWarning,0835.1,5.01,000.00,031.9,026.4,000.0,039.3,031.8,34.2,0000.0,0006.97,0003.69,0003.10
2023-08-02 05:03:00,SystemResetWarning,0835.1,5.00,000.00,031.9,025.7,000.0,039.3,031.5,34.4,0000.0,0006.75,0003.64,0003.10
2023-08-02 05:04:00,SystemResetWarning,0835.1,4.99,000.00,031.7,025.8,000.0,039.3,031.2,35.1,0000.0,0006.60,0003.63,0003.08
2023-08-02 05:05:00,SystemResetWarning,0835.1,5.03,000.00,031.7,026.2,000.0,039.4,031.3,35.4,0000.0,0006.57,0003.64,0003.09
2023-08-02 05:06:00,SystemResetWarning,0835.2,5.00,000.00,031.9,026.5,000.0,039.4,031.5,34.8,0000.0,0006.53,0003.65,0003.10
2023-08-02 05:07:00,SystemResetWarning,0835.3,4.97,000.00,032.0,026.9,000.0,039.5,031.6,34.2,0000.0,0006.51,0003.65,0003.10
2023-08-02 05:08:00,SystemResetWarning,0835.3,5.02,000.00,032.1,027.2,000.0,039.5,031.7,34.1,0000.0,0006.65,0003.69,0003.11
2023-08-02 05:09:00,SystemResetWarning,0835.3,4.99,000.00,032.1,027.5,000.0,039.6,031.7,34.1,0000.0,0006.45,0003.67,0003.12
2023-08-02 05:10:00,SystemResetWarning,0835.3,4.99,000.00,032.1,027.7,000.0,039.6,031.7,34.2,0000.0,0006.57,0003.70,0003.14
2023-08-02 05:11:00,SystemResetWarning,0835.3,5.01,000.00,032.1,027.9,000.0,039.7,031.8,34.4,0000.0,0006.70,0003.72,0003.14
2023-08-02 05:12:00,SystemResetWarning,0835.2,5.01,000.00,032.1,028.1,000.0,039.8,031.8,34.3,0000.0,0006.66,0003.72,0003.14
2023-08-02 05:13:00,SystemResetWarning,0835.1,4.99,000.00,032.1,028.2,000.0,039.8,031.8,34.5,0000.0,0006.43,0003.72,0003.15
2023-08-02 05:14:00,SystemResetWarning,0835.1,5.00,000.00,032.1,028.3,000.0,039.9,031.9,34.4,0000.0,0006.46,0003.74,0003.16
2023-08-02 05:15:00,SystemResetWarning,0835.1,5.00,000.00,032.1,028.4,000.0,039.9,031.9,34.4,0000.0,0006.53,0003.73,0003.16
2023-08-02 05:16:00,SystemResetWarning,0835.1,5.00,000.00,032.0,028.5,000.0,039.9,031.9,34.5,0000.0,0006.55,0003.72,0003.16
2023-08-02 05:17:00,SystemResetWarning,0835.1,5.00,000.00,032.0,028.5,000.0,039.9,031.9,34.8,0000.0,0006.70,0003.74,0003.16
2023-08-02 05:18:00,SystemResetWarning,0835.0,4.99,000.00,032.0,028.6,000.0,040.0,032.0,35.0,0000.0,0006.72,0003.75,0003.16
2023-08-02 05:19:00,SystemResetWarning,0835.1,5.02,000.00,032.1,028.6,000.0,040.0,032.1,34.7,0000.0,0006.74,0003.73,0003.15
2023-08-02 05:20:00,SystemResetWarning,0835.1,4.97,000.00,032.2,027.4,000.0,039.8,032.0,33.9,0000.0,0007.00,0003.74,0003.15
2023-08-02 05:21:00,SystemResetWarning,0835.1,5.03,000.00,032.2,025.9,000.0,039.7,031.8,34.0,0000.0,0007.07,0003.76,0003.15
2023-08-02 05:22:00,SystemResetWarning,0835.1,4.99,000.00,032.1,025.6,000.0,039.7,031.6,34.3,0000.0,0007.29,0003.80,0003.17
2023-08-02 05:23:00,SystemResetWarning,0835.1,4.99,000.00,031.9,025.9,000.0,039.7,031.4,34.7,0000.0,0007.44,0003.85,0003.19
2023-08-02 05:24:00,SystemResetWarning,0835.0,5.00,000.00,031.8,026.2,000.0,039.8,031.4,35.1,0000.0,0007.55,0003.88,0003.21
2023-08-02 05:25:00,SystemResetWarning,0835.1,5.04,000.00,031.9,026.6,000.0,039.8,031.6,34.9,0000.0,0007.60,0003.90,0003.22
2023-08-02 05:26:00,SystemResetWarning,0835.1,4.96,000.00,032.0,027.0,000.0,039.8,031.7,34.4,0000.0,0007.68,0003.97,0003.24
2023-08-02 05:27:00,SystemResetWarning,0835.1,5.03,000.00,032.1,027.3,000.0,039.8,031.8,34.0,0000.0,0007.75,0004.01,0003.26
2023-08-02 05:28:00,SystemResetWarning,0835.1,4.99,000.00,032.1,027.5,000.0,039.8,031.8,33.1,0000.0,0007.76,0004.02,0003.27
2023-08-02 05:29:00,SystemResetWarning,0835.1,4.99,000.00,032.1,027.7,000.0,039.8,031.8,33.0,0000.0,0007.90,0004.05,0003.29
2023-08-02 05:30:00,SystemResetWarning,0835.1,5.01,000.00,032.1,027.9,000.0,039.9,031.8,32.2,0000.0,0007.90,0004.07,0003.32
2023-08-02 05:31:00,SystemResetWarning,0835.1,5.01,000.00,032.1,028.1,000.0,039.9,031.8,32.8,0000.0,0008.10,0004.12,0003.35
2023-08-02 05:32:00,SystemResetWarning,0835.1,5.00,000.00,032.0,028.2,000.0,039.9,031.9,32.1,0000.0,0008.32,0004.16,0003.37
2023-08-02 05:33:00,SystemResetWarning,0835.1,5.00,000.00,032.0,028.3,000.0,039.9,031.9,31.7,0000.0,0008.21,0004.13,0003.36
2023-08-02 05:34:00,SystemResetWarning,0835.1,5.00,000.00,032.0,028.4,000.0,040.0,031.9,31.5,0000.0,0008.10,0004.13,0003.36
2023-08-02 05:35:00,SystemResetWarning,0835.2,5.00,000.00,032.0,028.5,000.0,040.0,031.9,31.4,0000.0,0008.08,0004.10,0003.37
2023-08-02 05:36:00,SystemResetWarning,0835.1,5.00,000.00,031.9,028.6,000.0,040.0,032.0,32.1,0000.0,0008.10,0004.11,0003.38
2023-08-02 05:37:00,SystemResetWarning,0835.2,5.00,000.00,031.9,028.6,000.0,040.0,032.0,33.7,0000.0,0008.02,0004.09,0003.39
2023-08-02 05:38:00,SystemResetWarning,0835.2,4.99,000.00,031.9,028.4,000.0,040.0,032.0,34.2,0000.0,0008.01,0004.08,0003.40
2023-08-02 05:39:00,SystemResetWarning,0835.1,4.99,000.00,031.9,026.8,000.0,039.8,031.9,34.2,0000.0,0007.99,0004.07,0003.41
2023-08-02 05:40:00,SystemResetWarning,0835.1,5.00,000.00,031.8,025.7,000.0,039.7,031.6,34.2,0000.0,0007.98,0004.06,0003.41
2023-08-02 05:41:00,SystemResetWarning,0835.0,5.01,000.00,031.6,025.7,000.0,039.7,031.3,34.5,0000.0,0008.10,0004.10,0003.41
2023-08-02 05:42:00,SystemResetWarning,0835.0,5.01,000.00,031.4,026.0,000.0,039.7,031.3,34.7,0000.0,0008.02,0004.08,0003.40
2023-08-02 05:43:00,SystemResetWarning,0835.0,5.00,000.00,031.3,026.4,000.0,039.6,031.3,34.9,0000.0,0008.02,0004.04,0003.40
2023-08-02 05:44:00,SystemResetWarning,0834.9,4.99,000.00,031.3,026.7,000.0,039.6,031.4,35.1,0000.0,0008.07,0004.02,0003.41
2023-08-02 05:45:00,SystemResetWarning,0834.9,5.01,000.00,031.4,027.1,000.0,039.6,031.5,34.8,0000.0,0008.01,0004.00,0003.41
2023-08-02 05:46:00,SystemResetWarning,0835.0,4.99,000.00,031.5,027.3,000.0,039.6,031.6,34.4,0000.0,0007.94,0004.01,0003.41
2023-08-02 05:47:00,SystemResetWarning,0835.0,5.02,000.00,031.5,027.5,000.0,039.6,031.6,34.1,0000.0,0008.03,0004.02,0003.40
2023-08-02 05:48:00,SystemResetWarning,0834.9,4.99,000.00,031.5,027.7,000.0,039.6,031.6,34.2,0000.0,0008.09,0004.03,0003.38
2023-08-02 05:49:00,SystemResetWarning,0835.2,4.99,000.00,031.5,027.9,000.0,039.6,031.6,34.4,0000.0,0008.12,0004.02,0003.37
2023-08-02 05:50:00,SystemResetWarning,0835.1,4.99,000.00,031.5,028.1,000.0,039.6,031.7,34.6,0000.0,0008.09,0004.01,0003.34
2023-08-02 05:51:00,SystemResetWarning,0834.9,5.00,000.00,031.5,028.2,000.0,039.6,031.7,34.6,0000.0,0007.97,0003.97,0003.33
2023-08-02 05:52:00,SystemResetWarning,0835.0,5.01,000.00,031.5,028.3,000.0,039.6,031.7,34.2,0000.0,0007.84,0003.93,0003.31
2023-08-02 05:53:00,SystemResetWarning,0835.0,5.01,000.00,031.5,028.3,000.0,039.6,031.8,34.2,0000.0,0007.78,0003.92,0003.28
2023-08-02 05:54:00,SystemResetWarning,0835.0,5.00,000.00,031.5,028.4,000.0,039.6,031.7,34.2,0000.0,0007.48,0003.90,0003.24
2023-08-02 05:55:00,SystemResetWarning,0835.0,5.00,000.00,031.4,028.5,000.0,039.6,031.8,34.3,0000.0,0007.20,0003.86,0003.21
2023-08-02 05:56:00,SystemResetWarning,0835.1,5.00,000.00,031.4,028.5,000.0,039.6,031.9,34.6,0000.0,0007.11,0003.84,0003.18
2023-08-02 05:57:00,SystemResetWarning,0835.1,5.00,000.00,031.4,028.6,000.0,039.6,031.9,34.6,0000.0,0007.05,0003.81,0003.18
2023-08-02 05:58:00,SystemResetWarning,0835.1,4.99,000.00,031.4,028.6,000.0,039.6,031.9,34.8,0000.0,0007.38,0003.81,0003.19
2023-08-02 05:59:00,SystemResetWarning,0835.1,4.99,000.00,031.4,028.6,000.0,039.6,031.9,34.7,0000.0,0007.81,0003.82,0003.20
